User: anonymous   Login
Location: Unspecified
(0.0000°N, 0.0000°E)
Time: 17:21:52
(UTC+00:00)
Language:

ETS 8 - Orbit

View from above orbital plane
View from above orbital plane
View from above satellite
View from above satellite

Ground track
Ground track

The orbit data is extracted from the following two-line orbital elements,

1 29656U 06059A   15087.47357002 -.00000263  00000-0  00000+0 0  9998
2 29656 004.0764 064.4845 0006011 304.1375 133.1323 01.00274410 30348
Epoch (UTC): 28 March 2015 11:21:56
Eccentricity: 0.0006011
inclination: 4.0764°
perigee height: 35760 km
apogee height: 35811 km
right ascension of ascending node: 64.4845°
argument of perigee: 304.1375°
revolutions per day: 1.00274410
mean anomaly at epoch: 133.1323°
orbit number at epoch: 3034

The dashed part of the orbit path shows where the satellite is in the earth's shadow,  

DLR